Volver al catálogo

STARLINK-6146

ActivoComunicacionesVLEO
NORAD 57124·PAYLOAD·🇺🇸 United States

Lanzado Jun 23, 2023 desde Cape Canaveral Space Force Station

Loading…

Próximos Pases (próximas 24 horas)

TLE

ActualizadoSource: CelesTrak SupGP

Época: Sep 15, 2026, 02:02 UTC

1 57124C 23090Z   26258.08520833  .00016214  00000+0  58742-3 0  2585
2 57124  42.9999 291.9122 0001438 264.6495 266.5104 15.27561113    18

Sigue STARLINK-6146 en tiempo real con AllMySat

Download on the App Store